PST,Max TemperatureF,Mean TemperatureF,Min TemperatureF,Max Dew PointF,MeanDew PointF,Min DewpointF,Max Humidity, Mean Humidity, Min Humidity, Max Sea Level PressureIn, Mean Sea Level PressureIn, Min Sea Level PressureIn, Max VisibilityMiles, Mean VisibilityMiles, Min VisibilityMiles, Max Wind SpeedMPH, Mean Wind SpeedMPH, Max Gust SpeedMPH,PrecipitationIn, CloudCover, Events, WindDirDegrees
2013-11-1,85,64,43,42,35,27,65,39,13,30.11,30.04,29.96,10,10,10,9,5,14,0.00,0,,342
2013-11-2,85,66,46,41,36,29,66,40,13,29.99,29.88,29.78,10,10,9,10,5,14,0.00,0,,348
2013-11-3,83,63,42,49,41,34,70,44,18,29.81,29.75,29.67,10,10,10,8,2,12,0.00,0,,267
2013-11-4,79,67,55,48,44,39,72,49,25,29.87,29.74,29.68,10,10,10,23,7,25,0.00,1,,318
2013-11-5,76,66,56,43,19,8,51,29,7,30.17,30.07,29.88,10,10,10,21,9,24,0.00,0,,324
2013-11-6,81,60,38,35,20,-1,46,25,4,30.27,30.20,30.15,10,10,10,9,3,10,0.00,0,,319
2013-11-7,85,63,40,37,26,10,59,33,6,30.16,30.07,29.99,10,10,10,8,3,10,0.00,0,,355
2013-11-8,85,64,43,35,27,15,58,33,8,30.01,29.96,29.88,10,10,10,10,4,13,0.00,0,,346
2013-11-9,81,61,40,45,34,26,62,39,15,30.05,30.00,29.94,10,10,10,8,2,10,0.00,0,,354
2013-11-10,83,65,46,39,33,25,60,36,12,30.09,30.03,29.99,10,10,10,6,3,7,0.00,0,,320
2013-11-11,91,68,45,44,35,29,60,36,12,30.06,30.01,29.95,10,10,10,9,4,14,0.00,0,,315
2013-11-12,89,70,50,49,39,29,61,37,12,30.12,30.05,30.01,10,10,10,8,2,9,0.00,0,,328
2013-11-13,91,70,49,46,38,27,61,36,10,30.04,29.97,29.89,10,10,10,8,2,14,0.00,0,,330
2013-11-14,87,67,47,41,37,31,61,37,13,29.95,29.84,29.69,10,10,10,14,3,16,0.00,0,,317
2013-11-15,79,65,51,52,44,39,59,44,28,29.67,29.61,29.54,10,10,7,20,5,24,0.00,0,,338
2013-11-16,75,63,51,50,45,42,77,55,33,29.86,29.74,29.64,10,10,10,20,7,24,0.00,0,,326
2013-11-17,74,59,44,46,43,39,76,55,33,30.05,29.98,29.87,10,10,10,9,4,14,0.00,0,,49
2013-11-18,78,61,44,49,44,37,77,54,30,30.09,30.01,29.96,10,10,9,9,3,12,0.00,0,,349
2013-11-19,69,64,58,49,48,46,72,60,47,29.96,29.93,29.85,10,10,9,14,7,,0.00,0,,319
2013-11-20,76,69,62,49,47,45,60,47,33,29.86,29.81,29.76,10,10,10,17,8,23,0.00,0,,316
2013-11-21,69,61,53,56,51,47,77,68,59,29.86,29.82,29.79,10,10,10,8,2,13,0.00,2,Rain,5
2013-11-22,63,60,56,51,45,40,80,62,43,29.98,29.91,29.83,10,10,7,15,7,18,0.06,7,Rain,328
2013-11-23,67,58,49,46,42,39,80,59,37,30.09,30.03,29.97,10,10,10,10,3,12,0.00,7,,344
2013-11-24,69,54,39,43,39,35,85,57,28,30.19,30.14,30.09,10,10,10,7,1,9,0.00,0,,312
2013-11-25,74,57,39,46,41,36,85,57,29,30.22,30.18,30.12,10,10,10,12,3,16,0.00,0,,206
2013-11-26,73,57,40,44,40,35,85,56,27,30.25,30.18,30.11,10,10,10,9,2,13,0.00,0,,339
2013-11-27,75,60,45,43,38,32,76,49,22,30.10,30.00,29.93,10,10,10,9,4,12,0.00,0,,328
2013-11-28,73,56,39,37,35,30,76,49,22,30.06,29.98,29.94,10,10,10,10,4,14,0.00,0,,308
2013-11-29,76,58,40,46,39,33,76,50,23,30.15,30.11,30.06,10,10,10,10,3,14,0.00,2,,320
2013-11-30,78,62,46,44,41,36,77,50,22,30.17,30.13,30.06,10,10,10,12,5,15,0.00,0,,344